Time,TemperatureF,DewpointF,PressureIn,WindDirection,WindDirectionDegrees,WindSpeedMPH,WindSpeedGustMPH,Humidity,HourlyPrecipIn,Conditions,Clouds,dailyrainin,SoftwareType,DateUTC
2013-02-24 00:00:00,47.6,47.3,29.73,NNE,25,1.0,4.0,99,0.05,,BKN046,0.00,VWS V14.01,2013-02-24 05:00:00,
2013-02-24 00:05:00,47.8,47.5,29.74,SSW,199,0.0,4.0,99,0.05,,BKN046,0.00,VWS V14.01,2013-02-24 05:05:00,
2013-02-24 00:10:00,48.1,47.8,29.76,SW,232,0.0,4.0,99,0.05,,BKN046,0.00,VWS V14.01,2013-02-24 05:10:00,
2013-02-24 00:15:00,48.3,48.0,29.77,SSW,194,0.0,1.0,99,0.05,,BKN046,0.00,VWS V14.01,2013-02-24 05:15:00,
2013-02-24 00:20:00,48.4,48.1,29.77,WNW,293,0.0,2.0,99,0.05,,BKN046,0.00,VWS V14.01,2013-02-24 05:20:00,
2013-02-24 00:25:00,48.5,48.2,29.79,WNW,293,2.0,2.0,99,0.05,,BKN046,0.00,VWS V14.01,2013-02-24 05:25:00,
2013-02-24 00:30:00,48.6,48.3,29.79,WNW,293,1.0,2.0,99,0.04,,BKN110,0.00,VWS V14.01,2013-02-24 05:30:00,
2013-02-24 00:35:00,48.5,48.2,29.79,WNW,293,0.0,2.0,99,0.04,,BKN110,0.00,VWS V14.01,2013-02-24 05:35:00,
2013-02-24 00:40:00,48.6,48.3,29.78,WNW,293,0.0,2.0,99,0.04,,BKN110,0.00,VWS V14.01,2013-02-24 05:40:00,
2013-02-24 00:45:00,48.5,48.2,29.75,WNW,293,0.0,0.0,99,0.01,,BKN110,0.00,VWS V14.01,2013-02-24 05:45:00,
2013-02-24 00:50:00,48.5,48.2,29.74,WNW,293,0.0,0.0,99,0.01,,BKN110,0.00,VWS V14.01,2013-02-24 05:50:00,
2013-02-24 00:55:00,48.5,48.2,29.73,WNW,293,0.0,1.0,99,0.01,,BKN110,0.00,VWS V14.01,2013-02-24 05:55:00,
2013-02-24 01:00:00,48.5,48.2,29.73,WNW,293,1.0,1.0,99,0.00,,OVC004,0.00,VWS V14.01,2013-02-24 06:00:00,
2013-02-24 01:05:00,48.5,48.2,29.76,West,266,1.0,3.0,99,0.00,,OVC004,0.00,VWS V14.01,2013-02-24 06:05:00,
2013-02-24 01:10:00,48.4,48.1,29.77,NW,312,1.0,5.0,99,0.00,,OVC004,0.00,VWS V14.01,2013-02-24 06:10:00,
2013-02-24 01:15:00,48.2,47.9,29.77,NW,305,2.0,2.0,99,0.00,,OVC004,0.00,VWS V14.01,2013-02-24 06:15:00,
2013-02-24 01:20:00,47.9,47.6,29.77,West,271,2.0,3.0,99,0.00,,OVC004,0.00,VWS V14.01,2013-02-24 06:20:00,
2013-02-24 01:25:00,47.8,47.5,29.77,ENE,70,1.0,3.0,99,0.00,,OVC004,0.00,VWS V14.01,2013-02-24 06:25:00,
2013-02-24 01:30:00,47.6,47.3,29.76,ENE,70,0.0,0.0,99,0.00,,OVC003,0.00,VWS V14.01,2013-02-24 06:30:00,
2013-02-24 01:35:00,47.5,47.2,29.77,WNW,301,2.0,3.0,99,0.00,,OVC003,0.00,VWS V14.01,2013-02-24 06:35:00,
2013-02-24 01:40:00,47.4,47.1,29.77,NNE,27,0.0,3.0,99,0.00,,OVC003,0.00,VWS V14.01,2013-02-24 06:40:00,
2013-02-24 01:45:00,47.4,47.1,29.77,WNW,282,2.0,3.0,99,0.00,,OVC003,0.00,VWS V14.01,2013-02-24 06:45:00,
2013-02-24 01:50:00,47.3,47.0,29.78,NW,308,0.0,4.0,99,0.00,,OVC003,0.00,VWS V14.01,2013-02-24 06:50:00,
2013-02-24 01:55:00,47.2,46.9,29.79,NW,304,1.0,4.0,99,0.00,,OVC003,0.00,VWS V14.01,2013-02-24 06:55:00,
2013-02-24 02:00:00,47.2,46.9,29.79,WNW,284,4.0,4.0,99,0.00,,OVC003,0.00,VWS V14.01,2013-02-24 07:00:00,
2013-02-24 02:05:00,47.0,46.7,29.79,WNW,297,2.0,6.0,99,0.00,,OVC003,0.00,VWS V14.01,2013-02-24 07:05:00,
2013-02-24 02:10:00,46.9,46.6,29.79,WNW,286,1.0,6.0,99,0.00,,OVC003,0.00,VWS V14.01,2013-02-24 07:10:00,
2013-02-24 02:15:00,46.9,46.6,29.79,WNW,301,2.0,4.0,99,0.00,,OVC003,0.00,VWS V14.01,2013-02-24 07:15:00,
2013-02-24 02:20:00,46.8,46.5,29.79,WNW,294,0.0,4.0,99,0.00,,OVC003,0.00,VWS V14.01,2013-02-24 07:20:00,
2013-02-24 02:25:00,46.8,46.5,29.79,WNW,289,2.0,5.0,99,0.00,,OVC003,0.00,VWS V14.01,2013-02-24 07:25:00,
2013-02-24 02:30:00,46.8,46.5,29.79,West,280,1.0,2.0,99,0.00,,OVC003,0.00,VWS V14.01,2013-02-24 07:30:00,
2013-02-24 02:35:00,46.7,46.4,29.79,West,281,3.0,3.0,99,0.00,,OVC003,0.00,VWS V14.01,2013-02-24 07:35:00,
2013-02-24 02:40:00,46.7,46.4,29.79,NNW,329,2.0,5.0,99,0.00,,OVC003,0.00,VWS V14.01,2013-02-24 07:40:00,
2013-02-24 02:45:00,46.6,46.3,29.79,WNW,286,2.0,3.0,99,0.00,,OVC003,0.00,VWS V14.01,2013-02-24 07:45:00,
2013-02-24 02:50:00,46.6,46.3,29.79,WNW,288,0.0,4.0,99,0.00,,OVC003,0.00,VWS V14.01,2013-02-24 07:50:00,
2013-02-24 02:55:00,46.6,46.3,29.79,NW,308,2.0,4.0,99,0.00,,OVC003,0.00,VWS V14.01,2013-02-24 07:55:00,
2013-02-24 03:00:00,46.5,46.2,29.80,NW,319,0.0,3.0,99,0.00,,OVC002,0.00,VWS V14.01,2013-02-24 08:00:00,
2013-02-24 03:05:00,46.6,46.3,29.80,NW,317,1.0,4.0,99,0.00,,OVC002,0.00,VWS V14.01,2013-02-24 08:05:00,
2013-02-24 03:10:00,46.6,46.3,29.80,NW,306,2.0,4.0,99,0.00,,OVC002,0.00,VWS V14.01,2013-02-24 08:10:00,
2013-02-24 03:15:00,46.5,46.2,29.80,NW,317,1.0,2.0,99,0.00,,OVC002,0.00,VWS V14.01,2013-02-24 08:15:00,
2013-02-24 03:20:00,46.6,46.3,29.80,NW,306,1.0,4.0,99,0.00,,OVC002,0.00,VWS V14.01,2013-02-24 08:20:00,
2013-02-24 03:25:00,46.7,46.4,29.80,NNW,344,3.0,4.0,99,0.00,,OVC002,0.00,VWS V14.01,2013-02-24 08:25:00,
2013-02-24 03:30:00,46.9,46.6,29.80,NNW,337,0.0,3.0,99,0.00,,OVC002,0.00,VWS V14.01,2013-02-24 08:30:00,
2013-02-24 03:35:00,46.9,46.6,29.80,NNW,328,1.0,3.0,99,0.00,,OVC002,0.00,VWS V14.01,2013-02-24 08:35:00,
2013-02-24 03:40:00,47.0,46.7,29.80,WNW,299,2.0,4.0,99,0.00,,OVC002,0.00,VWS V14.01,2013-02-24 08:40:00,
2013-02-24 03:45:00,47.0,46.7,29.79,NW,304,2.0,2.0,99,0.00,,OVC002,0.00,VWS V14.01,2013-02-24 08:45:00,
2013-02-24 03:50:00,47.0,46.7,29.79,NW,304,0.0,2.0,99,0.00,,OVC002,0.00,VWS V14.01,2013-02-24 08:50:00,
2013-02-24 03:55:00,46.9,46.6,29.79,NW,304,2.0,2.0,99,0.00,,OVC002,0.00,VWS V14.01,2013-02-24 08:55:00,
2013-02-24 04:00:00,47.0,46.7,29.79,West,269,1.0,2.0,99,0.00,,OVC002,0.00,VWS V14.01,2013-02-24 09:00:00,
2013-02-24 04:05:00,47.0,46.7,29.80,West,279,4.0,4.0,99,0.00,,OVC002,0.00,VWS V14.01,2013-02-24 09:05:00,
2013-02-24 04:10:00,47.0,46.7,29.80,WNW,298,3.0,4.0,99,0.00,,OVC002,0.00,VWS V14.01,2013-02-24 09:10:00,
2013-02-24 04:15:00,47.0,46.7,29.80,WSW,252,0.0,4.0,99,0.00,,OVC002,0.00,VWS V14.01,2013-02-24 09:15:00,
2013-02-24 04:20:00,47.0,46.7,29.81,WNW,300,3.0,4.0,99,0.00,,OVC002,0.00,VWS V14.01,2013-02-24 09:20:00,
2013-02-24 04:25:00,46.9,46.6,29.81,NNW,327,0.0,5.0,99,0.00,,OVC002,0.00,VWS V14.01,2013-02-24 09:25:00,
2013-02-24 04:30:00,46.9,46.6,29.81,WNW,292,1.0,3.0,99,0.00,,OVC002,0.00,VWS V14.01,2013-02-24 09:30:00,
2013-02-24 04:35:00,46.9,46.6,29.81,West,259,3.0,4.0,99,0.00,,OVC002,0.00,VWS V14.01,2013-02-24 09:35:00,
2013-02-24 04:40:00,46.8,46.5,29.82,West,272,2.0,4.0,99,0.00,,OVC002,0.00,VWS V14.01,2013-02-24 09:40:00,
2013-02-24 04:45:00,46.8,46.5,29.82,WNW,296,2.0,3.0,99,0.00,,OVC002,0.00,VWS V14.01,2013-02-24 09:45:00,
2013-02-24 04:50:00,46.8,46.5,29.82,WNW,295,3.0,4.0,99,0.00,,OVC002,0.00,VWS V14.01,2013-02-24 09:50:00,
2013-02-24 04:55:00,46.8,46.5,29.82,West,269,2.0,4.0,99,0.00,,OVC002,0.00,VWS V14.01,2013-02-24 09:55:00,
2013-02-24 05:00:00,46.8,46.5,29.82,NW,306,2.0,2.0,99,0.00,,OVC025,0.00,VWS V14.01,2013-02-24 10:00:00,
2013-02-24 05:05:00,46.8,46.5,29.82,NW,320,2.0,4.0,99,0.00,,OVC025,0.00,VWS V14.01,2013-02-24 10:05:00,
2013-02-24 05:10:00,46.8,46.5,29.82,NW,313,0.0,4.0,99,0.00,,OVC025,0.00,VWS V14.01,2013-02-24 10:10:00,
2013-02-24 05:15:00,46.8,46.5,29.82,WNW,286,3.0,3.0,99,0.00,,OVC025,0.00,VWS V14.01,2013-02-24 10:15:00,
2013-02-24 05:20:00,46.8,46.5,29.82,WNW,302,2.0,3.0,99,0.00,,OVC025,0.00,VWS V14.01,2013-02-24 10:20:00,
2013-02-24 05:25:00,46.7,46.4,29.82,WNW,301,2.0,3.0,99,0.00,,OVC025,0.00,VWS V14.01,2013-02-24 10:25:00,
2013-02-24 05:29:00,46.6,46.3,29.82,NW,305,0.0,2.0,99,0.00,,OVC037,0.00,VWS V14.01,2013-02-24 10:29:00,
2013-02-24 05:35:00,46.5,46.2,29.82,WNW,302,2.0,3.0,99,0.00,,OVC037,0.00,VWS V14.01,2013-02-24 10:35:00,
2013-02-24 05:40:00,46.5,46.2,29.82,WNW,292,1.0,3.0,99,0.00,,OVC037,0.00,VWS V14.01,2013-02-24 10:40:00,
2013-02-24 05:45:00,46.4,46.1,29.82,WNW,292,1.0,2.0,99,0.00,,OVC037,0.00,VWS V14.01,2013-02-24 10:45:00,
2013-02-24 05:50:00,46.4,46.1,29.82,West,281,2.0,4.0,99,0.00,,OVC037,0.00,VWS V14.01,2013-02-24 10:50:00,
2013-02-24 05:55:00,46.3,46.0,29.82,WNW,298,1.0,4.0,99,0.00,,OVC037,0.00,VWS V14.01,2013-02-24 10:55:00,
2013-02-24 06:00:00,46.3,46.0,29.83,West,281,1.0,1.0,99,0.00,,OVC005,0.00,VWS V14.01,2013-02-24 11:00:00,
2013-02-24 06:05:00,46.3,46.0,29.83,NNE,18,5.0,5.0,99,0.00,,OVC005,0.00,VWS V14.01,2013-02-24 11:05:00,
2013-02-24 06:09:00,46.4,46.1,29.83,WNW,284,5.0,5.0,99,0.00,,OVC005,0.00,VWS V14.01,2013-02-24 11:09:00,
2013-02-24 06:14:00,46.4,46.1,29.83,NW,311,2.0,2.0,99,0.00,,OVC005,0.00,VWS V14.01,2013-02-24 11:14:00,
2013-02-24 06:19:00,46.4,46.1,29.83,WNW,286,1.0,4.0,99,0.00,,OVC005,0.00,VWS V14.01,2013-02-24 11:19:00,
2013-02-24 06:24:00,46.4,46.1,29.83,WNW,292,1.0,4.0,99,0.00,,OVC005,0.00,VWS V14.01,2013-02-24 11:24:00,
2013-02-24 06:29:00,46.4,46.1,29.84,West,275,1.0,3.0,99,0.00,,OVC005,0.00,VWS V14.01,2013-02-24 11:29:00,
2013-02-24 06:34:00,46.4,46.1,29.84,NW,320,2.0,6.0,99,0.00,,OVC005,0.00,VWS V14.01,2013-02-24 11:34:00,
2013-02-24 06:39:00,46.4,46.1,29.84,NW,322,2.0,6.0,99,0.00,,OVC005,0.00,VWS V14.01,2013-02-24 11:39:00,
2013-02-24 06:44:00,46.4,46.1,29.84,NNW,335,4.0,4.0,99,0.00,,OVC005,0.00,VWS V14.01,2013-02-24 11:44:00,
2013-02-24 06:49:00,46.4,46.1,29.85,WNW,286,1.0,6.0,99,0.00,,OVC005,0.00,VWS V14.01,2013-02-24 11:49:00,
2013-02-24 06:54:00,46.4,46.1,29.85,WNW,302,3.0,6.0,99,0.00,,OVC005,0.00,VWS V14.01,2013-02-24 11:54:00,
2013-02-24 06:59:00,46.5,46.2,29.85,West,271,4.0,5.0,99,0.00,,,0.00,VWS V14.01,2013-02-24 11:59:00,
2013-02-24 07:04:00,46.5,46.2,29.85,NW,307,2.0,5.0,99,0.00,,,0.00,VWS V14.01,2013-02-24 12:04:00,
2013-02-24 07:09:00,46.5,46.2,29.86,WNW,294,1.0,5.0,99,0.00,,,0.00,VWS V14.01,2013-02-24 12:09:00,
2013-02-24 07:14:00,46.5,46.2,29.86,NW,322,3.0,7.0,99,0.00,,,0.00,VWS V14.01,2013-02-24 12:14:00,
2013-02-24 07:19:00,46.5,46.2,29.86,NW,308,3.0,7.0,99,0.00,,,0.00,VWS V14.01,2013-02-24 12:19:00,
2013-02-24 07:24:00,46.5,46.2,29.86,NW,315,3.0,7.0,99,0.00,,,0.00,VWS V14.01,2013-02-24 12:24:00,
2013-02-24 07:29:00,46.5,46.2,29.87,West,265,2.0,2.0,99,0.00,,,0.00,VWS V14.01,2013-02-24 12:29:00,
2013-02-24 07:34:00,46.6,46.3,29.87,WSW,242,3.0,4.0,99,0.00,,,0.00,VWS V14.01,2013-02-24 12:34:00,
2013-02-24 07:43:00,46.7,46.4,29.87,NW,312,1.0,3.0,99,0.00,,,0.00,VWS V14.01,2013-02-24 12:43:00,
2013-02-24 07:48:00,46.7,46.4,29.87,WNW,302,4.0,4.0,99,0.00,,,0.00,VWS V14.01,2013-02-24 12:48:00,
2013-02-24 07:55:00,46.7,46.4,29.88,NW,306,2.0,3.0,99,0.00,,,0.00,VWS V14.01,2013-02-24 12:55:00,
2013-02-24 08:00:00,46.8,46.5,29.88,NW,305,3.0,4.0,99,0.00,,,0.00,VWS V14.01,2013-02-24 13:00:00,
2013-02-24 08:05:00,46.8,46.5,29.89,NW,319,4.0,5.0,99,0.00,,,0.00,VWS V14.01,2013-02-24 13:05:00,
2013-02-24 08:10:00,46.9,46.6,29.89,WNW,301,4.0,7.0,99,0.00,,,0.00,VWS V14.01,2013-02-24 13:10:00,
2013-02-24 08:15:00,47.0,46.7,29.89,West,277,4.0,4.0,99,0.00,,,0.00,VWS V14.01,2013-02-24 13:15:00,
2013-02-24 08:23:00,47.0,46.7,29.89,NNW,328,4.0,4.0,99,0.00,,,0.00,VWS V14.01,2013-02-24 13:23:00,
2013-02-24 08:28:00,47.1,46.8,29.89,WNW,294,2.0,6.0,99,0.00,,,0.00,VWS V14.01,2013-02-24 13:28:00,
2013-02-24 08:33:00,47.1,46.8,29.90,NNW,329,1.0,5.0,99,0.00,,,0.00,VWS V14.01,2013-02-24 13:33:00,
2013-02-24 08:57:00,47.5,47.2,29.91,NW,309,3.0,3.0,99,0.00,,,0.00,VWS V14.01,2013-02-24 13:57:00,
2013-02-24 09:02:00,47.6,47.3,29.91,WSW,248,1.0,5.0,99,0.00,,,0.00,VWS V14.01,2013-02-24 14:02:00,
2013-02-24 09:07:00,47.7,47.4,29.91,ENE,78,1.0,8.0,99,0.00,,,0.00,VWS V14.01,2013-02-24 14:07:00,
2013-02-24 09:12:00,47.7,47.4,29.91,WNW,288,2.0,8.0,99,0.00,,,0.00,VWS V14.01,2013-02-24 14:12:00,
2013-02-24 09:17:00,47.8,47.5,29.91,NW,307,3.0,5.0,99,0.00,,,0.00,VWS V14.01,2013-02-24 14:17:00,
2013-02-24 09:22:00,48.1,47.8,29.91,WNW,295,2.0,5.0,99,0.00,,,0.00,VWS V14.01,2013-02-24 14:22:00,
2013-02-24 09:27:00,48.2,47.9,29.91,NW,313,2.0,6.0,99,0.00,,,0.00,VWS V14.01,2013-02-24 14:27:00,
2013-02-24 09:32:00,48.3,48.0,29.91,WNW,296,4.0,6.0,99,0.00,,,0.00,VWS V14.01,2013-02-24 14:32:00,
2013-02-24 09:37:00,48.4,48.1,29.91,West,279,4.0,6.0,99,0.00,,,0.00,VWS V14.01,2013-02-24 14:37:00,
2013-02-24 09:42:00,48.7,48.4,29.91,West,281,2.0,6.0,99,0.00,,,0.00,VWS V14.01,2013-02-24 14:42:00,
2013-02-24 09:47:00,49.0,48.7,29.91,West,262,3.0,4.0,99,0.00,,,0.00,VWS V14.01,2013-02-24 14:47:00,
2013-02-24 09:52:00,49.4,49.1,29.91,NW,315,4.0,4.0,99,0.00,,,0.00,VWS V14.01,2013-02-24 14:52:00,
2013-02-24 09:57:00,49.5,49.0,29.91,NW,319,3.0,5.0,98,0.00,,,0.00,VWS V14.01,2013-02-24 14:57:00,
2013-02-24 10:02:00,49.6,49.1,29.92,WNW,303,2.0,6.0,98,0.00,,OVC006,0.00,VWS V14.01,2013-02-24 15:02:00,
2013-02-24 10:07:00,50.3,49.8,29.91,NW,304,2.0,6.0,98,0.00,,OVC006,0.00,VWS V14.01,2013-02-24 15:07:00,
2013-02-24 10:12:00,50.6,49.8,29.92,NW,314,1.0,6.0,97,0.00,,OVC006,0.00,VWS V14.01,2013-02-24 15:12:00,
2013-02-24 10:17:00,50.9,49.8,29.92,WNW,289,1.0,5.0,96,0.00,,OVC006,0.00,VWS V14.01,2013-02-24 15:17:00,
2013-02-24 10:22:00,51.3,49.6,29.92,West,270,3.0,5.0,94,0.00,,OVC006,0.00,VWS V14.01,2013-02-24 15:22:00,
2013-02-24 10:27:00,51.8,50.1,29.92,NW,304,3.0,6.0,94,0.00,,OVC006,0.00,VWS V14.01,2013-02-24 15:27:00,
2013-02-24 10:32:00,52.3,50.0,29.92,NW,324,3.0,4.0,92,0.00,,SCT009,0.00,VWS V14.01,2013-02-24 15:32:00,
2013-02-24 10:37:00,52.7,49.8,29.92,WNW,286,3.0,6.0,90,0.00,,SCT009,0.00,VWS V14.01,2013-02-24 15:37:00,
2013-02-24 10:42:00,53.3,50.2,29.92,NW,309,0.0,6.0,89,0.00,,SCT009,0.00,VWS V14.01,2013-02-24 15:42:00,
2013-02-24 10:47:00,53.9,50.1,29.92,ENE,65,2.0,6.0,87,0.00,,SCT009,0.00,VWS V14.01,2013-02-24 15:47:00,
2013-02-24 10:52:00,54.4,50.6,29.93,NE,35,1.0,6.0,87,0.00,,SCT009,0.00,VWS V14.01,2013-02-24 15:52:00,
2013-02-24 10:57:00,55.0,50.6,29.93,East,79,1.0,6.0,85,0.00,,SCT009,0.00,VWS V14.01,2013-02-24 15:57:00,
2013-02-24 11:02:00,55.6,50.5,29.92,WSW,238,3.0,6.0,83,0.00,,FEW015,0.00,VWS V14.01,2013-02-24 16:02:00,
2013-02-24 11:07:00,55.9,50.8,29.93,West,279,2.0,6.0,83,0.00,,FEW015,0.00,VWS V14.01,2013-02-24 16:07:00,
2013-02-24 11:12:00,56.4,50.7,29.92,West,268,1.0,6.0,81,0.00,,FEW015,0.00,VWS V14.01,2013-02-24 16:12:00,
2013-02-24 11:17:00,56.8,51.4,29.92,NNE,22,1.0,6.0,82,0.00,,FEW015,0.00,VWS V14.01,2013-02-24 16:17:00,
2013-02-24 11:22:00,57.2,51.1,29.92,NNW,327,3.0,7.0,80,0.00,,FEW015,0.00,VWS V14.01,2013-02-24 16:22:00,
2013-02-24 11:27:00,57.5,51.7,29.92,WNW,282,0.0,7.0,81,0.00,,FEW015,0.00,VWS V14.01,2013-02-24 16:27:00,
2013-02-24 11:32:00,57.7,50.9,29.92,NW,326,2.0,6.0,78,0.00,,FEW015,0.00,VWS V14.01,2013-02-24 16:32:00,
2013-02-24 11:37:00,57.7,50.9,29.92,WNW,290,4.0,6.0,78,0.00,,FEW015,0.00,VWS V14.01,2013-02-24 16:37:00,
2013-02-24 11:42:00,57.8,50.7,29.92,West,263,0.0,6.0,77,0.00,,FEW015,0.00,VWS V14.01,2013-02-24 16:42:00,
2013-02-24 11:47:00,57.8,50.3,29.92,NNW,336,2.0,6.0,76,0.00,,FEW015,0.00,VWS V14.01,2013-02-24 16:47:00,
2013-02-24 11:52:00,57.9,50.0,29.92,WNW,287,2.0,6.0,75,0.00,,FEW015,0.00,VWS V14.01,2013-02-24 16:52:00,
2013-02-24 11:57:00,58.1,50.2,29.92,NNW,327,4.0,10.0,75,0.00,,FEW015,0.00,VWS V14.01,2013-02-24 16:57:00,
2013-02-24 12:02:00,58.5,49.5,29.92,NW,315,2.0,6.0,72,0.00,,FEW015,0.00,VWS V14.01,2013-02-24 17:02:00,
2013-02-24 12:07:00,58.9,49.9,29.91,NW,315,2.0,6.0,72,0.00,,FEW015,0.00,VWS V14.01,2013-02-24 17:07:00,
2013-02-24 12:12:00,59.3,50.3,29.91,NNW,341,2.0,7.0,72,0.00,,FEW015,0.00,VWS V14.01,2013-02-24 17:12:00,
2013-02-24 12:17:00,59.8,51.1,29.91,NNW,330,3.0,5.0,73,0.00,,FEW015,0.00,VWS V14.01,2013-02-24 17:17:00,
2013-02-24 12:22:00,59.9,50.5,29.91,NNW,347,3.0,6.0,71,0.00,,FEW015,0.00,VWS V14.01,2013-02-24 17:22:00,
2013-02-24 12:27:00,60.1,49.5,29.90,NW,319,1.0,8.0,68,0.00,,FEW015,0.00,VWS V14.01,2013-02-24 17:27:00,
2013-02-24 12:32:00,60.5,50.3,29.90,WNW,296,1.0,5.0,69,0.00,,FEW015,0.00,VWS V14.01,2013-02-24 17:32:00,
2013-02-24 12:37:00,60.7,50.1,29.90,NW,326,3.0,5.0,68,0.00,,FEW015,0.00,VWS V14.01,2013-02-24 17:37:00,
2013-02-24 12:42:00,60.8,49.8,29.90,WNW,283,1.0,6.0,67,0.00,,FEW015,0.00,VWS V14.01,2013-02-24 17:42:00,
2013-02-24 12:47:00,60.9,49.9,29.90,WNW,292,2.0,6.0,67,0.00,,FEW015,0.00,VWS V14.01,2013-02-24 17:47:00,
2013-02-24 12:52:00,61.1,49.7,29.91,NW,311,1.0,6.0,66,0.00,,FEW015,0.00,VWS V14.01,2013-02-24 17:52:00,
2013-02-24 12:57:00,61.1,49.7,29.90,WNW,296,3.0,6.0,66,0.00,,FEW015,0.00,VWS V14.01,2013-02-24 17:57:00,
2013-02-24 13:02:00,61.0,48.8,29.90,ENE,67,2.0,7.0,64,0.00,,FEW015,0.00,VWS V14.01,2013-02-24 18:02:00,
2013-02-24 13:07:00,61.2,48.9,29.90,ENE,71,2.0,7.0,64,0.00,,FEW015,0.00,VWS V14.01,2013-02-24 18:07:00,
2013-02-24 13:12:00,61.5,49.2,29.90,SW,218,2.0,8.0,64,0.00,,FEW015,0.00,VWS V14.01,2013-02-24 18:12:00,
2013-02-24 13:17:00,61.6,48.5,29.89,WNW,295,3.0,6.0,62,0.00,,FEW015,0.00,VWS V14.01,2013-02-24 18:17:00,
2013-02-24 13:22:00,61.8,49.1,29.89,WNW,294,2.0,7.0,63,0.00,,FEW015,0.00,VWS V14.01,2013-02-24 18:22:00,
2013-02-24 13:27:00,61.8,49.1,29.89,NNE,26,3.0,7.0,63,0.00,,FEW015,0.00,VWS V14.01,2013-02-24 18:27:00,
2013-02-24 13:32:00,62.1,49.4,29.89,NNW,338,2.0,2.0,63,0.00,,CLR,0.00,VWS V14.01,2013-02-24 18:32:00,
2013-02-24 13:37:00,62.8,49.6,29.88,NNW,336,4.0,7.0,62,0.00,,CLR,0.00,VWS V14.01,2013-02-24 18:37:00,
2013-02-24 13:42:00,63.2,47.3,29.89,NW,311,2.0,7.0,56,0.00,,CLR,0.00,VWS V14.01,2013-02-24 18:42:00,
2013-02-24 13:47:00,63.4,48.4,29.89,West,281,3.0,4.0,58,0.00,,CLR,0.00,VWS V14.01,2013-02-24 18:47:00,
2013-02-24 13:52:00,63.6,49.5,29.88,NNW,342,2.0,5.0,60,0.00,,CLR,0.00,VWS V14.01,2013-02-24 18:52:00,
2013-02-24 13:57:00,63.3,46.9,29.89,SW,232,1.0,7.0,55,0.00,,CLR,0.00,VWS V14.01,2013-02-24 18:57:00,
2013-02-24 14:02:00,63.4,47.9,29.89,SW,229,2.0,5.0,57,0.00,,SKC,0.00,VWS V14.01,2013-02-24 19:02:00,
2013-02-24 14:07:00,63.5,48.5,29.89,WSW,250,4.0,6.0,58,0.00,,SKC,0.00,VWS V14.01,2013-02-24 19:07:00,
2013-02-24 14:12:00,63.6,48.1,29.88,West,262,2.0,6.0,57,0.00,,SKC,0.00,VWS V14.01,2013-02-24 19:12:00,
2013-02-24 14:17:00,64.0,48.5,29.88,West,274,3.0,5.0,57,0.00,,SKC,0.00,VWS V14.01,2013-02-24 19:17:00,
2013-02-24 14:22:00,63.7,45.8,29.88,West,259,0.0,6.0,52,0.00,,SKC,0.00,VWS V14.01,2013-02-24 19:22:00,
2013-02-24 14:27:00,63.7,45.2,29.88,West,277,3.0,6.0,51,0.00,,SKC,0.00,VWS V14.01,2013-02-24 19:27:00,
2013-02-24 14:32:00,63.5,44.5,29.88,WNW,302,2.0,6.0,50,0.00,,SKC,0.00,VWS V14.01,2013-02-24 19:32:00,
2013-02-24 14:37:00,63.6,45.7,29.87,WNW,301,3.0,6.0,52,0.00,,SKC,0.00,VWS V14.01,2013-02-24 19:37:00,
2013-02-24 14:42:00,63.8,45.9,29.87,North,9,1.0,6.0,52,0.00,,SKC,0.00,VWS V14.01,2013-02-24 19:42:00,
2013-02-24 14:47:00,63.8,44.8,29.87,West,278,5.0,6.0,50,0.00,,SKC,0.00,VWS V14.01,2013-02-24 19:47:00,
2013-02-24 14:52:00,63.8,45.3,29.87,WNW,294,0.0,6.0,51,0.00,,SKC,0.00,VWS V14.01,2013-02-24 19:52:00,
2013-02-24 14:57:00,63.9,44.4,29.87,NE,43,1.0,6.0,49,0.00,,SKC,0.00,VWS V14.01,2013-02-24 19:57:00,
2013-02-24 15:02:00,63.8,44.8,29.87,NE,53,1.0,4.0,50,0.00,,SKC,0.00,VWS V14.01,2013-02-24 20:02:00,
2013-02-24 15:07:00,63.9,45.4,29.87,WNW,284,1.0,4.0,51,0.00,,SKC,0.00,VWS V14.01,2013-02-24 20:07:00,
2013-02-24 15:12:00,64.1,44.6,29.88,North,351,0.0,5.0,49,0.00,,SKC,0.00,VWS V14.01,2013-02-24 20:12:00,
2013-02-24 15:17:00,64.2,41.8,29.88,West,260,2.0,4.0,44,0.00,,SKC,0.00,VWS V14.01,2013-02-24 20:17:00,
2013-02-24 15:22:00,64.4,43.8,29.87,ENE,59,1.0,4.0,47,0.00,,SKC,0.00,VWS V14.01,2013-02-24 20:22:00,
2013-02-24 15:27:00,64.4,44.8,29.87,North,355,1.0,6.0,49,0.00,,SKC,0.00,VWS V14.01,2013-02-24 20:27:00,
2013-02-24 15:32:00,64.5,43.8,29.88,WNW,282,3.0,6.0,47,0.00,,SKC,0.00,VWS V14.01,2013-02-24 20:32:00,
2013-02-24 15:37:00,64.7,43.5,29.88,NNW,329,1.0,6.0,46,0.00,,SKC,0.00,VWS V14.01,2013-02-24 20:37:00,
2013-02-24 15:42:00,64.7,44.0,29.88,NW,319,1.0,6.0,47,0.00,,SKC,0.00,VWS V14.01,2013-02-24 20:42:00,
2013-02-24 15:47:00,64.7,44.6,29.88,NE,50,2.0,5.0,48,0.00,,SKC,0.00,VWS V14.01,2013-02-24 20:47:00,
2013-02-24 15:52:00,64.6,43.9,29.88,WNW,303,3.0,5.0,47,0.00,,SKC,0.00,VWS V14.01,2013-02-24 20:52:00,
2013-02-24 15:57:00,64.6,42.8,29.88,NW,306,1.0,5.0,45,0.00,,SKC,0.00,VWS V14.01,2013-02-24 20:57:00,
2013-02-24 16:02:00,64.5,43.3,29.88,West,281,1.0,6.0,46,0.00,,SKC,0.00,VWS V14.01,2013-02-24 21:02:00,
2013-02-24 16:07:00,64.7,43.5,29.87,NW,306,3.0,6.0,46,0.00,,SKC,0.00,VWS V14.01,2013-02-24 21:07:00,
2013-02-24 16:12:00,64.8,43.0,29.87,West,267,0.0,6.0,45,0.00,,SKC,0.00,VWS V14.01,2013-02-24 21:12:00,
2013-02-24 16:17:00,65.0,44.8,29.87,NE,42,0.0,3.0,48,0.00,,SKC,0.00,VWS V14.01,2013-02-24 21:17:00,
2013-02-24 16:22:00,65.2,45.0,29.87,NW,309,2.0,3.0,48,0.00,,SKC,0.00,VWS V14.01,2013-02-24 21:22:00,
2013-02-24 16:27:00,65.3,44.6,29.88,West,275,2.0,4.0,47,0.00,,SKC,0.00,VWS V14.01,2013-02-24 21:27:00,
2013-02-24 16:32:00,65.3,44.6,29.88,North,351,0.0,2.0,47,0.00,,SKC,0.00,VWS V14.01,2013-02-24 21:32:00,
2013-02-24 16:37:00,65.5,45.3,29.88,West,270,0.0,3.0,48,0.00,,SKC,0.00,VWS V14.01,2013-02-24 21:37:00,
2013-02-24 16:42:00,65.6,43.7,29.88,West,278,2.0,3.0,45,0.00,,SKC,0.00,VWS V14.01,2013-02-24 21:42:00,
2013-02-24 16:47:00,65.6,44.8,29.88,North,360,1.0,4.0,47,0.00,,SKC,0.00,VWS V14.01,2013-02-24 21:47:00,
2013-02-24 16:52:00,65.4,44.1,29.88,West,275,1.0,4.0,46,0.00,,SKC,0.00,VWS V14.01,2013-02-24 21:52:00,
2013-02-24 16:57:00,65.3,43.4,29.88,West,265,2.0,4.0,45,0.00,,SKC,0.00,VWS V14.01,2013-02-24 21:57:00,
2013-02-24 17:02:00,65.1,43.8,29.88,WNW,296,1.0,3.0,46,0.00,,CLR,0.00,VWS V14.01,2013-02-24 22:02:00,
2013-02-24 17:07:00,65.0,43.7,29.88,WSW,257,0.0,3.0,46,0.00,,CLR,0.00,VWS V14.01,2013-02-24 22:07:00,
2013-02-24 17:12:00,64.7,49.1,29.89,SSE,166,2.0,3.0,57,0.00,,CLR,0.00,VWS V14.01,2013-02-24 22:12:00,
2013-02-24 17:17:00,62.9,49.7,29.89,SW,221,0.0,3.0,62,0.00,,CLR,0.00,VWS V14.01,2013-02-24 22:17:00,
2013-02-24 17:22:00,61.4,49.5,29.89,SSW,211,0.0,3.0,65,0.00,,CLR,0.00,VWS V14.01,2013-02-24 22:22:00,
2013-02-24 17:27:00,60.5,49.9,29.89,SSW,213,0.0,3.0,68,0.00,,CLR,0.00,VWS V14.01,2013-02-24 22:27:00,
2013-02-24 17:32:00,59.9,50.1,29.89,SSE,157,1.0,2.0,70,0.00,,CLR,0.00,VWS V14.01,2013-02-24 22:32:00,
2013-02-24 17:37:00,59.3,49.9,29.89,SSE,150,1.0,3.0,71,0.00,,CLR,0.00,VWS V14.01,2013-02-24 22:37:00,
2013-02-24 17:42:00,58.7,49.7,29.89,SE,137,2.0,3.0,72,0.00,,CLR,0.00,VWS V14.01,2013-02-24 22:42:00,
2013-02-24 17:47:00,58.3,49.7,29.89,SE,137,0.0,1.0,73,0.00,,CLR,0.00,VWS V14.01,2013-02-24 22:47:00,
2013-02-24 17:52:00,57.9,49.3,29.89,SE,137,1.0,1.0,73,0.00,,CLR,0.00,VWS V14.01,2013-02-24 22:52:00,
2013-02-24 17:57:00,57.5,48.9,29.89,SSW,210,0.0,5.0,73,0.00,,CLR,0.00,VWS V14.01,2013-02-24 22:57:00,
2013-02-24 18:02:00,57.1,48.9,29.90,SSW,205,1.0,4.0,74,0.00,,SKC,0.00,VWS V14.01,2013-02-24 23:02:00,
2013-02-24 18:07:00,56.7,49.2,29.90,SW,232,0.0,4.0,76,0.00,,SKC,0.00,VWS V14.01,2013-02-24 23:07:00,
2013-02-24 18:12:00,56.4,49.3,29.90,SW,232,0.0,4.0,77,0.00,,SKC,0.00,VWS V14.01,2013-02-24 23:12:00,
2013-02-24 18:17:00,56.0,49.6,29.90,SSW,192,0.0,2.0,79,0.00,,SKC,0.00,VWS V14.01,2013-02-24 23:17:00,
2013-02-24 18:22:00,55.7,49.6,29.91,West,260,2.0,4.0,80,0.00,,SKC,0.00,VWS V14.01,2013-02-24 23:22:00,
2013-02-24 18:27:00,55.3,49.9,29.91,SSW,202,1.0,5.0,82,0.00,,SKC,0.00,VWS V14.01,2013-02-24 23:27:00,
2013-02-24 18:32:00,55.1,50.0,29.91,SSW,194,1.0,4.0,83,0.00,,SKC,0.00,VWS V14.01,2013-02-24 23:32:00,
2013-02-24 18:37:00,54.9,50.2,29.91,SW,225,3.0,5.0,84,0.00,,SKC,0.00,VWS V14.01,2013-02-24 23:37:00,
2013-02-24 18:42:00,54.6,50.2,29.92,SSW,211,0.0,5.0,85,0.00,,SKC,0.00,VWS V14.01,2013-02-24 23:42:00,
2013-02-24 18:47:00,54.5,50.4,29.92,SW,232,1.0,5.0,86,0.00,,SKC,0.00,VWS V14.01,2013-02-24 23:47:00,
2013-02-24 18:52:00,54.4,50.3,29.92,SSW,202,0.0,5.0,86,0.00,,SKC,0.00,VWS V14.01,2013-02-24 23:52:00,
2013-02-24 18:57:00,54.2,50.4,29.93,WSW,249,2.0,5.0,87,0.00,,SKC,0.00,VWS V14.01,2013-02-24 23:57:00,
2013-02-24 19:02:00,54.1,50.3,29.93,WSW,254,2.0,4.0,87,0.00,,SKC,0.00,VWS V14.01,2013-02-25 00:02:00,
2013-02-24 19:07:00,54.0,50.5,29.93,SSW,192,2.0,4.0,88,0.00,,SKC,0.00,VWS V14.01,2013-02-25 00:07:00,
2013-02-24 19:12:00,53.9,50.4,29.93,WSW,240,1.0,5.0,88,0.00,,SKC,0.00,VWS V14.01,2013-02-25 00:12:00,
2013-02-24 19:17:00,53.9,50.7,29.94,SW,233,1.0,3.0,89,0.00,,SKC,0.00,VWS V14.01,2013-02-25 00:17:00,
2013-02-24 19:22:00,53.8,50.6,29.94,SW,236,1.0,3.0,89,0.00,,SKC,0.00,VWS V14.01,2013-02-25 00:22:00,
2013-02-24 19:27:00,53.7,50.5,29.94,SW,233,2.0,5.0,89,0.00,,SKC,0.00,VWS V14.01,2013-02-25 00:27:00,
2013-02-24 19:32:00,53.7,50.5,29.94,WSW,246,1.0,2.0,89,0.00,,SKC,0.00,VWS V14.01,2013-02-25 00:32:00,
2013-02-24 19:37:00,53.6,50.4,29.94,WSW,245,1.0,3.0,89,0.00,,SKC,0.00,VWS V14.01,2013-02-25 00:37:00,
2013-02-24 19:42:00,53.5,50.3,29.94,WSW,245,0.0,3.0,89,0.00,,SKC,0.00,VWS V14.01,2013-02-25 00:42:00,
2013-02-24 19:47:00,53.2,50.0,29.94,WSW,245,0.0,0.0,89,0.00,,SKC,0.00,VWS V14.01,2013-02-25 00:47:00,
2013-02-24 19:51:00,53.1,50.2,29.94,WSW,245,0.0,1.0,90,0.00,,SKC,0.00,VWS V14.01,2013-02-25 00:51:00,
2013-02-24 19:56:00,52.8,50.0,29.94,WSW,245,0.0,1.0,90,0.00,,SKC,0.00,VWS V14.01,2013-02-25 00:56:00,
2013-02-24 20:01:00,52.7,49.8,29.94,WSW,245,0.0,0.0,90,0.00,,SKC,0.00,VWS V14.01,2013-02-25 01:01:00,
2013-02-24 20:06:00,52.4,49.6,29.94,WSW,245,0.0,0.0,90,0.00,,SKC,0.00,VWS V14.01,2013-02-25 01:06:00,
2013-02-24 20:11:00,52.1,49.3,29.94,WSW,245,0.0,0.0,90,0.00,,SKC,0.00,VWS V14.01,2013-02-25 01:11:00,
2013-02-24 20:16:00,51.8,49.3,29.94,WSW,245,0.0,0.0,91,0.00,,SKC,0.00,VWS V14.01,2013-02-25 01:16:00,
2013-02-24 20:21:00,51.5,49.3,29.94,WSW,245,0.0,1.0,92,0.00,,SKC,0.00,VWS V14.01,2013-02-25 01:21:00,
2013-02-24 20:26:00,51.2,49.0,29.94,WSW,245,0.0,1.0,92,0.00,,SKC,0.00,VWS V14.01,2013-02-25 01:26:00,
2013-02-24 20:31:00,50.9,48.7,29.94,WSW,245,0.0,0.0,92,0.00,,SKC,0.00,VWS V14.01,2013-02-25 01:31:00,
2013-02-24 20:36:00,50.7,48.5,29.95,WSW,245,0.0,1.0,92,0.00,,SKC,0.00,VWS V14.01,2013-02-25 01:36:00,
2013-02-24 20:41:00,50.6,48.7,29.95,WSW,245,0.0,2.0,93,0.00,,SKC,0.00,VWS V14.01,2013-02-25 01:41:00,
2013-02-24 20:46:00,50.5,48.6,29.95,WSW,245,0.0,0.0,93,0.00,,SKC,0.00,VWS V14.01,2013-02-25 01:46:00,
2013-02-24 20:51:00,50.5,48.8,29.95,WSW,245,0.0,1.0,94,0.00,,SKC,0.00,VWS V14.01,2013-02-25 01:51:00,
2013-02-24 20:56:00,50.3,48.6,29.95,WSW,245,0.0,1.0,94,0.00,,SKC,0.00,VWS V14.01,2013-02-25 01:56:00,
2013-02-24 21:01:00,50.2,48.5,29.95,WSW,245,0.0,0.0,94,0.00,,SKC,0.00,VWS V14.01,2013-02-25 02:01:00,
2013-02-24 21:06:00,50.2,48.5,29.96,WSW,245,0.0,1.0,94,0.00,,SKC,0.00,VWS V14.01,2013-02-25 02:06:00,
2013-02-24 21:11:00,50.4,48.7,29.96,WSW,245,1.0,1.0,94,0.00,,SKC,0.00,VWS V14.01,2013-02-25 02:11:00,
2013-02-24 21:16:00,50.5,49.1,29.96,WSW,245,0.0,0.0,95,0.00,,SKC,0.00,VWS V14.01,2013-02-25 02:16:00,
2013-02-24 21:21:00,50.7,49.3,29.96,WSW,245,0.0,1.0,95,0.00,,SKC,0.00,VWS V14.01,2013-02-25 02:21:00,
2013-02-24 21:26:00,50.8,49.4,29.97,WSW,245,0.0,1.0,95,0.00,,SKC,0.00,VWS V14.01,2013-02-25 02:26:00,
2013-02-24 21:31:00,50.9,49.2,29.97,WSW,245,0.0,0.0,94,0.00,,SKC,0.00,VWS V14.01,2013-02-25 02:31:00,
2013-02-24 21:36:00,50.8,49.1,29.97,WSW,245,0.0,0.0,94,0.00,,SKC,0.00,VWS V14.01,2013-02-25 02:36:00,
2013-02-24 21:41:00,50.6,48.7,29.97,WSW,245,0.0,0.0,93,0.00,,SKC,0.00,VWS V14.01,2013-02-25 02:41:00,
2013-02-24 21:46:00,50.4,48.5,29.97,WSW,245,0.0,0.0,93,0.00,,SKC,0.00,VWS V14.01,2013-02-25 02:46:00,
2013-02-24 21:51:00,50.2,48.3,29.97,WSW,245,0.0,0.0,93,0.00,,SKC,0.00,VWS V14.01,2013-02-25 02:51:00,
2013-02-24 21:56:00,49.9,48.0,29.97,WSW,245,0.0,0.0,93,0.00,,SKC,0.00,VWS V14.01,2013-02-25 02:56:00,
2013-02-24 22:01:00,49.7,47.8,29.97,WSW,245,0.0,0.0,93,0.00,,CLR,0.00,VWS V14.01,2013-02-25 03:01:00,
2013-02-24 22:06:00,49.4,47.5,29.97,WSW,245,0.0,0.0,93,0.00,,CLR,0.00,VWS V14.01,2013-02-25 03:06:00,
2013-02-24 22:11:00,49.2,47.3,29.97,WSW,245,0.0,0.0,93,0.00,,CLR,0.00,VWS V14.01,2013-02-25 03:11:00,
2013-02-24 22:16:00,49.0,47.3,29.97,WSW,245,0.0,0.0,94,0.00,,CLR,0.00,VWS V14.01,2013-02-25 03:16:00,
2013-02-24 22:21:00,48.8,47.2,29.97,WSW,245,0.0,0.0,94,0.00,,CLR,0.00,VWS V14.01,2013-02-25 03:21:00,
2013-02-24 22:26:00,48.7,47.0,29.96,WSW,245,0.0,0.0,94,0.00,,CLR,0.00,VWS V14.01,2013-02-25 03:26:00,
2013-02-24 22:31:00,48.5,46.9,29.97,WSW,245,0.0,0.0,94,0.00,,CLR,0.00,VWS V14.01,2013-02-25 03:31:00,
2013-02-24 22:36:00,48.3,46.7,29.97,WSW,245,0.0,0.0,94,0.00,,CLR,0.00,VWS V14.01,2013-02-25 03:36:00,
2013-02-24 22:41:00,48.1,46.5,29.97,WSW,245,0.0,0.0,94,0.00,,CLR,0.00,VWS V14.01,2013-02-25 03:41:00,
2013-02-24 22:46:00,47.9,46.5,29.97,WSW,245,0.0,0.0,95,0.00,,CLR,0.00,VWS V14.01,2013-02-25 03:46:00,
2013-02-24 22:51:00,47.8,46.4,29.97,WSW,245,0.0,0.0,95,0.00,,CLR,0.00,VWS V14.01,2013-02-25 03:51:00,
2013-02-24 22:56:00,47.7,46.3,29.97,WSW,245,0.0,0.0,95,0.00,,CLR,0.00,VWS V14.01,2013-02-25 03:56:00,
2013-02-24 23:01:00,47.6,46.2,29.96,WSW,245,0.0,0.0,95,0.00,,CLR,0.00,VWS V14.01,2013-02-25 04:01:00,
2013-02-24 23:06:00,47.4,46.0,29.96,WSW,245,0.0,0.0,95,0.00,,CLR,0.00,VWS V14.01,2013-02-25 04:06:00,
2013-02-24 23:11:00,47.3,46.2,29.96,WSW,245,0.0,1.0,96,0.00,,CLR,0.00,VWS V14.01,2013-02-25 04:11:00,
2013-02-24 23:16:00,47.1,45.7,29.96,WSW,245,0.0,1.0,95,0.00,,CLR,0.00,VWS V14.01,2013-02-25 04:16:00,
2013-02-24 23:21:00,46.8,45.5,29.96,WSW,245,0.0,1.0,95,0.00,,CLR,0.00,VWS V14.01,2013-02-25 04:21:00,
2013-02-24 23:26:00,46.5,45.4,29.96,WSW,245,0.0,1.0,96,0.00,,CLR,0.00,VWS V14.01,2013-02-25 04:26:00,
2013-02-24 23:31:00,46.2,45.1,29.96,WSW,245,0.0,0.0,96,0.00,,,0.00,VWS V14.01,2013-02-25 04:31:00,
2013-02-24 23:36:00,46.1,45.0,29.95,WSW,245,0.0,0.0,96,0.00,,,0.00,VWS V14.01,2013-02-25 04:36:00,
2013-02-24 23:41:00,46.0,44.9,29.96,WSW,245,0.0,0.0,96,0.00,,,0.00,VWS V14.01,2013-02-25 04:41:00,
2013-02-24 23:47:00,45.9,44.8,29.96,WSW,245,0.0,0.0,96,0.00,,,0.00,VWS V14.01,2013-02-25 04:47:00,
2013-02-24 23:52:00,45.8,44.7,29.96,WSW,245,0.0,0.0,96,0.00,,,0.00,VWS V14.01,2013-02-25 04:52:00,
2013-02-24 23:57:00,45.7,44.6,29.96,WSW,245,0.0,0.0,96,0.00,,,0.00,VWS V14.01,2013-02-25 04:57:00,